Skip Page Navigation
NASA JPL Caltech
NASA Logo - Jet Propulsion Laboratory + View the NASA Portal
+ Center for Near-Earth Object Studies
JPL Home Earth Solar System Stars & Galaxies Technology
JPL Solar System Dynamics
BODIES ORBITS EPHEMERIDES TOOLS PHYSICAL DATA DISCOVERY FAQ SITE MAP
IMPORTANT: The SSD Announcement email list is now available. Major changes are coming in the near future, including possible hostname and/or URL changes. To be notified of such changes, subscribe to this email list.

Please visit this page for more details.


JPL Small-Body Database Browser
Search: [ help ]  
376233 (2011 EZ43)
Classification: Main-belt Asteroid          SPK-ID: 2376233
Ephemeris | Orbit Diagram | Orbital Elements | Mission Design | Physical Parameters | Discovery Circumstances | Close-Approach Data ]

[ show orbit diagram ]
Orbital Elements at Epoch 2459000.5 (2020-May-31.0) TDB
Reference: JPL 15 (heliocentric ecliptic J2000)
 Element Value Uncertainty (1-sigma)   Units 
e .09619710031939396 1.0225e-07  
a 3.057297550722585 5.5888e-08 au
q 2.763194391529487 3.2713e-07 au
i 11.23613085565548 1.1418e-05 deg
node 7.864805430731406 2.7647e-05 deg
peri 197.4656838448739 5.0164e-05 deg
M 251.866591642087 4.7788e-05 deg
tp 2459586.992389319975
(2022-Jan-07.49238932)
0.00026992 TDB
period 1952.562703437066
5.35
5.354e-05
1.466e-07
d
yr
n .1843730802428508 5.0556e-09 deg/d
Q 3.351400709915684 6.1265e-08 au
  Orbit Determination Parameters
   # obs. used (total)      220  
   data-arc span      5831 days (15.96 yr)  
   first obs. used      2003-11-18  
   last obs. used      2019-11-05  
   planetary ephem.      DE431  
   SB-pert. ephem.      SB431-N16  
   condition code      0  
   norm. resid. RMS      .51294  
   source      ORB  
   producer      Otto Matic  
   solution date      2019-Dec-05 00:11:25  

Additional Information
 Earth MOID = 1.76236 au 
 Jupiter MOID = 1.61979 au 
 T_jup = 3.199 
[ show covariance matrix ]

Ephemeris | Orbit Diagram | Orbital Elements | Mission Design | Physical Parameters | Discovery Circumstances | Close-Approach Data ]

Physical Parameter Table
Parameter Symbol Value Units Sigma Reference Notes
absolute magnitude H 15.6   n/a MPO455712  

376233 (2011 EZ43)          Discovered 2003-Nov-18 by Spacewatch at Kitt Peak
Reference: Last Updated: 2013-10-21

[ show close-approach data ]
Ephemeris | Orbit Diagram | Orbital Elements | Mission Design | Physical Parameters | Discovery Circumstances | Close-Approach Data ]
ABOUT SSD CREDITS/AWARDS PRIVACY/COPYRIGHT GLOSSARY LINKS
FirstGov 2020-Mar-29 21:27 UT
(server date/time)  
NASA Home Page
Site Manager:   Ryan S. Park
Webmaster  Alan B. Chamberlin